CZ-3C DEB, 40853

Orbit data source: Space-Track

CZ-3C DEB, 40853 is space debris in HEO originally from a launch on Fri, 24 Feb 2012 UTC launched from the Xichang Space Center, China (XSC). Debris objects in space refer to the collection of defunct objects orbiting the Earth. Examples of debris include non-operational satellites, rocket bodies, and fragments generated from explosions, collisions, or faulty payload assembly.

Loading next visibility...
Identifier
40853, 2012-008T
Orbit
HEO
Country
Flag of CNCN / PRC
Related business
Manufacturer
CALT
Mission
Spacecraft
Bus & Motor
Unknown
Mass
Unknown
Launch date (UTC)
2012-02-24 (14 years ago)
Launch vehicle
Unknown
Launch site
Xichang Space Center, China (XSC)
Object type
Payload
Rocket body
Debris
Shape & HBR
Unknown shape, 0.1 m
Radar Cross Section
Medium (>0.1 m² and <1 m²)

Expand to show TLE details & history
Last TLE update: 3 days ago

TLE from 3 days ago
0 CZ-3C DEB
1 40853U 12008T   26197.68372695  .00000005  00000-0  49930-2 0  9994
2 40853  21.1154  32.9030 7052652 170.3664 218.6871  2.27929460 98525
Epoch: 2026-07-16T16:24Z
TLE epoch observation values (Epoch: 2026-07-16T16:24:34.008Z)
Latitude
-0.00005°
Longitude
-147.74684°
Altitude
33,819.139 km
Speed
1.868 km/s
True Right ascension
02h 11m 39s
True Declination
0° 00' 00"
Sunlit
Object was in daylight at epoch
Visualization orbit readout
Latitude
Unknown
Longitude
Unknown
Altitude
Unknown
Speed
Unknown
Apparent Right ascension
Unknown
Apparent Declination
Unknown
Sunlit
N/A
Visualization observer readout
Local Sidereal Time
19:34:06
Azimuth
Unknown
Elevation
Unknown
Doppler factor
Unknown
Orbital elements
Apogee altitude
35,219.284 km
Perigee altitude
811.482 km
Semi-major axis
24,393.52 km
Eccentricity
0.70527
Inclination
21.1154°
RAAN
32.903°
Arg. of periapsis
170.3664°
True anomaly
189.64292°
Mean anomaly
218.6871°
Eccentric anomaly
202.93825°
Mean motion
0.56968 °/min
Orbital period
631.93 mins
BSTAR
0.004993
Loading maneuver chart data...
Computing Atmospheric mass density...
Loading historical data...
Loading historical data...
Loading historical data...
Loading historical data...
Loading historical data...
Loading historical data...
Loading historical data...

Documentation

Showing up to 5 results
|